Date String (YYYY-MM-DD hh:mm:ss) UTC,Instrument flags,absolute air pressure of the measurement (hPa),sample flow rate (lpm),inlet stack bypass flow (lpm),air temperature of the measurement (°C),ambient temperature measured by the external sensor (°C),aerosol sample conditioner tube jacket temperature (°C),OPC LED temperature (°C),internal box temperature (°C),relative humidity of the measurement (%),span deviation,mass concentration of particles derived from Lorenz-Mie calculation of OPC scattering (μg/m³),mass concentration of particles derived from Lorenz-Mie calculation of OPC scattering (μg/m³),mass concentration of particles derived from Lorenz-Mie calculation of OPC scattering (μg/m³)
DateTimeUTC,F1_M11,P_M11,Q1_M11,Q2_M11,T1_M11,T2_M11,T3_M11,T4_M11,T5_M11,U1_M11,ZSPAN_M11,X2_M11,X0_M11,X1_M11
2023-06-13 19:00:00,SystemResetWarning,0830.2,5.01,000.00,029.2,027.6,000.0,037.8,030.6,29.5,0000.5,0008.82,0011.84,0008.33
2023-06-13 19:01:00,SystemResetWarning,0830.2,5.01,000.00,029.2,027.6,000.0,037.8,030.6,29.3,0000.7,0008.63,0011.81,0008.14
2023-06-13 19:02:00,SystemResetWarning,0830.2,5.01,000.00,029.2,027.6,000.0,037.8,030.6,29.4,0000.9,0008.45,0011.59,0007.95
2023-06-13 19:03:00,SystemResetWarning,0830.3,5.00,000.00,029.2,027.6,000.0,037.8,030.6,29.5,0001.1,0008.22,0011.70,0007.76
2023-06-13 19:04:00,SystemResetWarning,0830.3,4.99,000.00,029.2,027.6,000.0,037.8,030.6,29.5,0001.4,0008.04,0011.63,0007.59
2023-06-13 19:05:00,SystemResetWarning,0830.3,4.99,000.00,029.2,027.6,000.0,037.8,030.5,29.6,0001.4,0007.90,0011.56,0007.45
2023-06-13 19:06:00,SystemResetWarning,0830.3,5.00,000.00,029.2,027.6,000.0,037.8,030.6,29.4,0001.2,0007.73,0011.46,0007.28
2023-06-13 19:07:00,SystemResetWarning,0830.3,5.01,000.00,029.2,027.6,000.0,037.8,030.6,29.0,0001.2,0007.54,0011.30,0007.09
2023-06-13 19:08:00,SystemResetWarning,0830.3,5.01,000.00,029.2,027.6,000.0,037.8,030.6,28.8,0001.3,0007.39,0011.14,0006.96
2023-06-13 19:09:00,SystemResetWarning,0830.3,5.00,000.00,029.2,027.6,000.0,037.8,030.5,28.8,0001.4,0007.38,0011.31,0006.95
2023-06-13 19:10:00,SystemResetWarning,0830.3,4.98,000.00,029.2,027.6,000.0,037.8,030.6,28.6,0001.3,0007.35,0011.40,0006.92
2023-06-13 19:11:00,SystemResetWarning,0830.3,5.00,000.00,029.2,027.6,000.0,037.8,030.6,28.6,0001.1,0007.28,0011.34,0006.85
2023-06-13 19:12:00,SystemResetWarning,0830.3,5.00,000.00,029.2,027.6,000.0,037.8,030.6,28.6,0001.2,0007.19,0011.08,0006.80
2023-06-13 19:13:00,SystemResetWarning,0830.3,5.00,000.00,029.2,027.7,000.0,037.8,030.7,28.6,0001.2,0007.16,0011.03,0006.77
2023-06-13 19:14:00,SystemResetWarning,0830.3,5.01,000.00,029.2,027.7,000.0,037.8,030.7,28.7,0001.2,0007.13,0010.65,0006.73
2023-06-13 19:15:00,SystemResetWarning,0830.3,5.01,000.00,029.2,027.7,000.0,037.8,030.7,29.1,0001.4,0007.03,0010.49,0006.65
2023-06-13 19:16:00,SystemResetWarning,0830.4,5.00,000.00,029.2,027.7,000.0,037.8,030.7,28.8,0001.3,0006.96,0010.38,0006.58
2023-06-13 19:17:00,SystemResetWarning,0830.3,4.99,000.00,029.2,027.7,000.0,037.8,030.7,28.8,0001.4,0006.94,0010.30,0006.56
2023-06-13 19:18:00,SystemResetWarning,0830.3,5.00,000.00,029.2,027.7,000.0,037.8,030.7,29.0,0001.9,0006.95,0010.33,0006.57
2023-06-13 19:19:00,SystemResetWarning,0830.3,5.00,000.00,029.2,027.7,000.0,037.8,030.7,29.0,0002.2,0006.99,0010.43,0006.58
2023-06-13 19:20:00,SystemResetWarning,0830.3,5.00,000.00,029.2,027.8,000.0,037.8,030.7,28.3,0002.2,0006.98,0010.31,0006.58
2023-06-13 19:21:00,SystemResetWarning,0830.3,5.01,000.00,029.3,027.8,000.0,037.8,030.8,28.0,0002.2,0007.00,0010.27,0006.59
2023-06-13 19:22:00,SystemResetWarning,0830.3,5.00,000.00,029.3,027.8,000.0,037.8,030.8,28.1,0002.0,0006.99,0010.24,0006.57
2023-06-13 19:23:00,SystemResetWarning,0830.3,5.00,000.00,029.3,027.8,000.0,037.8,030.8,28.3,0001.9,0007.00,0010.24,0006.58
2023-06-13 19:24:00,SystemResetWarning,0830.2,4.99,000.00,029.3,027.8,000.0,037.8,030.8,28.3,0001.8,0006.96,0010.17,0006.54
2023-06-13 19:25:00,SystemResetWarning,0830.3,4.99,000.00,029.3,027.8,000.0,037.8,030.8,28.1,0001.6,0006.90,0010.21,0006.47
2023-06-13 19:26:00,SystemResetWarning,0830.3,5.01,000.00,029.3,027.8,000.0,037.8,030.8,27.9,0001.4,0006.83,0009.99,0006.40
2023-06-13 19:27:00,SystemResetWarning,0830.2,5.01,000.00,029.3,027.8,000.0,037.8,030.8,27.9,0001.5,0006.75,0009.86,0006.32
2023-06-13 19:28:00,SystemResetWarning,0830.3,5.00,000.00,029.3,027.8,000.0,037.8,030.8,28.3,0001.4,0006.67,0009.74,0006.25
2023-06-13 19:29:00,SystemResetWarning,0830.3,4.99,000.00,029.3,027.8,000.0,037.8,030.8,28.4,0001.3,0006.64,0009.68,0006.23
2023-06-13 19:30:00,SystemResetWarning,0830.2,5.02,000.00,029.3,027.8,000.0,037.8,030.9,28.5,0000.9,0006.64,0009.63,0006.24
2023-06-13 19:31:00,SystemResetWarning,0830.2,5.01,000.00,029.3,027.8,000.0,037.8,030.9,28.7,0000.9,0006.66,0009.66,0006.25
2023-06-13 19:32:00,SystemResetWarning,0830.2,4.99,000.00,029.4,027.8,000.0,037.8,030.9,28.9,0000.7,0006.67,0009.62,0006.28
2023-06-13 19:33:00,SystemResetWarning,0830.2,5.00,000.00,029.4,027.9,000.0,037.9,030.9,28.9,0000.9,0006.68,0009.56,0006.31
2023-06-13 19:34:00,SystemResetWarning,0830.2,5.00,000.00,029.4,027.9,000.0,037.9,030.9,29.4,0000.8,0006.68,0009.54,0006.32
2023-06-13 19:35:00,SystemResetWarning,0830.2,5.00,000.00,029.4,027.9,000.0,037.9,030.8,29.3,0000.7,0006.68,0009.52,0006.32
2023-06-13 19:36:00,SystemResetWarning,0830.2,5.00,000.00,029.4,027.9,000.0,037.9,030.9,29.1,0001.0,0006.70,0009.43,0006.35
2023-06-13 19:37:00,SystemResetWarning,0830.2,5.00,000.00,029.4,027.9,000.0,037.9,030.9,29.2,0001.3,0006.79,0009.90,0006.42
2023-06-13 19:38:00,SystemResetWarning,0830.2,5.00,000.00,029.4,027.9,000.0,037.9,030.9,29.4,0001.3,0006.88,0010.58,0006.49
2023-06-13 19:39:00,SystemResetWarning,0830.2,5.00,000.00,029.4,027.9,000.0,037.9,030.9,29.4,0001.4,0006.91,0010.59,0006.53
2023-06-13 19:40:00,SystemResetWarning,0830.2,5.00,000.00,029.4,027.9,000.0,037.9,030.9,29.4,0001.1,0006.93,0010.59,0006.55
2023-06-13 19:41:00,SystemResetWarning,0830.2,5.01,000.00,029.4,027.9,000.0,037.9,030.9,29.4,0001.0,0006.91,0011.09,0006.56
2023-06-13 19:42:00,SystemResetWarning,0830.2,5.00,000.00,029.4,027.9,000.0,037.9,030.9,29.7,0000.9,0006.92,0011.10,0006.54
2023-06-13 19:43:00,SystemResetWarning,0830.2,5.00,000.00,029.4,027.9,000.0,037.9,030.9,30.0,0001.0,0006.92,0011.09,0006.53
2023-06-13 19:44:00,SystemResetWarning,0830.2,4.99,000.00,029.4,027.9,000.0,037.9,030.9,30.0,0000.8,0006.96,0011.13,0006.56
2023-06-13 19:45:00,SystemResetWarning,0830.3,5.00,000.00,029.4,027.9,000.0,037.9,030.9,30.2,0001.1,0006.99,0011.17,0006.59
2023-06-13 19:46:00,SystemResetWarning,0830.3,5.00,000.00,029.4,027.9,000.0,037.9,030.9,30.1,0001.3,0007.03,0011.21,0006.65
2023-06-13 19:47:00,SystemResetWarning,0830.2,5.01,000.00,029.4,027.9,000.0,037.9,030.9,29.9,0001.3,0007.06,0011.29,0006.67
2023-06-13 19:48:00,SystemResetWarning,0830.3,5.01,000.00,029.4,027.9,000.0,037.9,030.9,29.9,0001.3,0007.03,0010.90,0006.66
2023-06-13 19:49:00,SystemResetWarning,0830.2,4.98,000.00,029.4,027.9,000.0,037.9,030.9,30.5,0001.7,0006.99,0010.30,0006.64
2023-06-13 19:50:00,SystemResetWarning,0830.2,5.00,000.00,029.4,027.9,000.0,038.0,030.9,29.9,0001.9,0006.99,0010.41,0006.61
2023-06-13 19:51:00,SystemResetWarning,0830.2,5.02,000.00,029.4,027.9,000.0,038.0,030.9,29.1,0001.9,0006.92,0010.32,0006.54
2023-06-13 19:52:00,SystemResetWarning,0830.2,4.99,000.00,029.4,027.9,000.0,038.0,030.9,29.2,0001.9,0006.87,0009.78,0006.49
2023-06-13 19:53:00,SystemResetWarning,0830.2,4.99,000.00,029.4,027.9,000.0,038.0,030.9,29.4,0002.1,0006.79,0009.66,0006.44
2023-06-13 19:54:00,SystemResetWarning,0830.1,5.00,000.00,029.5,027.9,000.0,038.0,031.0,29.1,0001.9,0006.71,0009.55,0006.38
2023-06-13 19:55:00,SystemResetWarning,0830.1,5.01,000.00,029.5,027.9,000.0,038.0,030.9,29.0,0002.0,0006.64,0009.48,0006.32
2023-06-13 19:56:00,SystemResetWarning,0830.1,5.01,000.00,029.5,027.9,000.0,038.0,030.9,29.1,0002.0,0006.57,0009.38,0006.27
2023-06-13 19:57:00,SystemResetWarning,0830.1,5.00,000.00,029.5,027.9,000.0,038.0,031.0,29.7,0001.7,0006.50,0009.30,0006.21
2023-06-13 19:58:00,SystemResetWarning,0830.1,4.99,000.00,029.5,027.9,000.0,038.0,031.0,29.7,0001.6,0006.45,0009.18,0006.17
2023-06-13 19:59:00,SystemResetWarning,0830.1,5.00,000.00,029.5,027.9,000.0,038.0,031.0,29.1,0001.4,0006.41,0009.10,0006.14
